Home > Weather > Ho Chi Minh > Past weeks

Flag for Vietnam Past Weather in Ho Chi Minh, Vietnam — Yesterday and Last 2 Weeks

Now
79 °F

Light rain. More clouds than sun.


Feels Like: 82 °F
Forecast: 76 / 85 °F
Wind: 2 mph from North

Location: Ho Chi Minh

Current Time: Jun 26, 2016 at 5:10:16 PM

Latest Report: Jun 26, 2016 at 4:30 PM


Visibility: 5 mi

Pressure: 29.74 "Hg

Humidity: 89%

Dew Point: 75 °F

Location of Ho Chi MinhLocation

Past Weather in Ho Chi Minh — Graph

°F

Ho Chi Minh Temperature Yesterday

Maximum temperature yesterday: 91 °F (at 2:00 PM)
Minimum temperature yesterday: 77 °F (at 1:30 AM)
Average temperature yesterday: 83 °F

High & Low Weather Summary for the Past Weeks

 TemperatureHumidityPressure
High95 °F (Jun 13, 1:30 PM)100% (Jun 12, 4:30 AM)29.89 "Hg (Jun 12, 4:30 AM)
Low75 °F (Jun 17, 5:00 AM)46% (Jun 22, 1:30 PM)29.65 "Hg (Jun 21, 3:30 PM)
Average83 °F84%29.76 "Hg
* Reported Jun 11 4:00 PM — Jun 26 4:00 PM, Ho Chi Minh, Weather by CustomWeather, © 2016

Note: Actual official high and low records may vary slightly from our data, if they occured in-between our weather recording intervals... More about our weather records

Advertising

Ho Chi Minh Weather History for the Previous 24 Hours

Scroll right to see more
 ConditionsComfort  
Time TempWeatherWind HumidityBarometerVisibility
4:00 PM
Sun, Jun 26
77 °FLight rain. Broken clouds.1 mph94%29.74 "Hg4 mi
3:00 PM77 °FBroken clouds.6 mph94%29.74 "HgN/A
2:30 PM79 °FLight rain. Broken clouds.7 mph89%29.74 "Hg5 mi
2:00 PM77 °FLight rain. Broken clouds.8 mph94%29.74 "Hg5 mi
1:30 PM77 °FLight rain. More clouds than sun.10 mph94%29.74 "Hg5 mi
1:00 PM77 °FLight rain. More clouds than sun.10 mph89%29.74 "Hg4 mi
12:30 PM77 °FSprinkles. Broken clouds.13 mph100%29.77 "Hg3 mi
12:00 PM77 °FRain showers. Broken clouds.18 mph94%29.77 "Hg2 mi
11:30 AM86 °FSprinkles. Partly sunny.8 mph79%29.74 "Hg5 mi
11:00 AM86 °FScattered clouds.14 mph75%29.77 "HgN/A
10:30 AM88 °FPartly sunny.14 mph75%29.77 "HgN/A
10:00 AM88 °FScattered clouds.12 mph75%29.80 "HgN/A
9:30 AM86 °FScattered clouds.10 mph79%29.80 "HgN/A
9:00 AM84 °FBroken clouds.12 mph84%29.80 "HgN/A
8:30 AM84 °FBroken clouds.9 mph84%29.80 "HgN/A
8:00 AM82 °FPartly sunny.6 mph89%29.80 "HgN/A
7:30 AM82 °FPartly sunny.3 mph89%29.80 "Hg6 mi
7:00 AM81 °FBroken clouds.6 mph94%29.77 "Hg5 mi
6:30 AM79 °FBroken clouds.5 mph100%29.77 "Hg5 mi
6:00 AM79 °FLight rain. Broken clouds.2 mph100%29.77 "Hg5 mi
5:30 AM79 °FLight rain. Partly cloudy.3 mph100%29.77 "Hg5 mi
5:00 AM79 °FLight rain. Passing clouds.5 mph100%29.77 "Hg5 mi
4:30 AM79 °FLight rain. Passing clouds.3 mph94%29.77 "Hg5 mi
4:00 AM79 °FPassing clouds.7 mph94%29.77 "HgN/A
3:30 AM81 °FPassing clouds.7 mph89%29.77 "HgN/A
3:00 AM81 °FPassing clouds.6 mph89%29.77 "HgN/A
2:30 AM81 °FPassing clouds.6 mph89%29.77 "HgN/A
2:00 AM81 °FPassing clouds.7 mph89%29.77 "HgN/A
1:30 AM81 °FPassing clouds.5 mph89%29.77 "HgN/A
1:00 AM81 °FPassing clouds.5 mph84%29.80 "HgN/A
12:30 AM82 °FPassing clouds.8 mph79%29.80 "HgN/A
12:00 AM82 °FPassing clouds.8 mph79%29.83 "HgN/A
11:30 PM
Sat, Jun 25
84 °FPassing clouds.8 mph79%29.83 "HgN/A
11:00 PM84 °FPassing clouds.8 mph79%29.83 "HgN/A
10:30 PM84 °FPassing clouds.8 mph79%29.83 "HgN/A
10:00 PM84 °FPassing clouds.8 mph84%29.83 "HgN/A
9:30 PM84 °FPassing clouds.3 mph74%29.80 "HgN/A
9:00 PM82 °FPassing clouds.3 mph79%29.80 "HgN/A
8:30 PM86 °FPassing clouds.3 mph66%29.80 "HgN/A
8:00 PM84 °FPassing clouds.2 mph70%29.77 "HgN/A
7:30 PM82 °FPassing clouds.5 mph79%29.77 "HgN/A
7:00 PM84 °FPassing clouds.6 mph74%29.74 "HgN/A
6:30 PM84 °FPassing clouds.6 mph70%29.74 "HgN/A
6:00 PM84 °FPartly sunny.6 mph70%29.74 "HgN/A
5:30 PM86 °FScattered clouds.8 mph62%29.74 "HgN/A
5:00 PM88 °FScattered clouds.9 mph59%29.74 "HgN/A
Weather by CustomWeather, © 2016

See weather overviewHow to use our weather pages